Weather History for Orange City, IA

Change the Weather History Date:

Sunday, February 3, 2013

  Actual Average Record
Temperature  
Mean Temperature 26 °F -  
Max Temperature 42 °F 29 °F 57 °F (2005)
Min Temperature 10 °F 13 °F -13 °F (2007)
Degree Days  
Heating Degree Days 39    
Moisture  
Dew Point 19 °F    
Average Humidity 75    
Maximum Humidity 87    
Minimum Humidity 57    
Precipitation  
Precipitation 0.00 in - - ()
Sea Level Pressure  
Sea Level Pressure 29.96 in    
Wind  
Wind Speed 12 mph (SW)    
Max Wind Speed 21 mph    
Max Gust Speed 31 mph    
Visibility 10 miles    
Events      
Averages and records for this station are not official NWS values.
T = Trace of Precipitation, MM = Missing Value Source: NWS Daily Summary

Daily Weather History Graph

Daily Weather History Graph

Search for Another Location

Airport:

Trip Planner

Search our weather history database for the weather conditions in past years. The results will help you decide how hot, cold, wet, or windy it might be!

Date:

Astronomy

Feb. 03, 2013 Rise Set
Actual Time 7:36 AM CST 5:40 PM CST
Civil Twilight 7:06 AM CST 6:09 PM CST
Nautical Twilight 6:33 AM CST 6:43 PM CST
Astronomical Twilight 5:59 AM CST 7:17 PM CST
Moon 1:05 AM CST (2/3) 11:17 AM CST (2/3)
Length of Visible Light 11h 03m
Length of Day
10h 03m
Waning Gibbous, 48% of the Moon is Illuminated
Feb 3
Waning Gibbous
Feb 10
New
Feb 17
First Quarter
Feb 25
Full
Mar 4
Last Quarter

Hourly Weather History & Observations

Time (CST) Temp. Windchill Dew Point Humidity Pressure Visibility Wind Dir Wind Speed Gust Speed Precip Events Conditions
12:15 AM 19.4 °F 3.6 °F 12.2 °F 74% 30.09 in 10.0 mi NW 19.6 mph 25.3 mph N/A   Scattered Clouds
12:35 AM 19.4 °F 4.5 °F 12.2 °F 74% 30.09 in 10.0 mi NW 17.3 mph - N/A   Scattered Clouds
12:55 AM 19.4 °F 4.5 °F 12.2 °F 74% 30.10 in 10.0 mi NW 17.3 mph 23.0 mph N/A   Scattered Clouds
1:15 AM 19.4 °F 4.1 °F 12.2 °F 74% 30.11 in 10.0 mi NW 18.4 mph 23.0 mph N/A   Mostly Cloudy
1:35 AM 17.6 °F 0.9 °F 12.2 °F 79% 30.11 in 10.0 mi NW 20.7 mph 31.1 mph N/A   Mostly Cloudy
1:55 AM 17.6 °F 0.9 °F 10.4 °F 73% 30.12 in 10.0 mi NW 20.7 mph 27.6 mph N/A   Scattered Clouds
2:15 AM 17.6 °F 2.2 °F 10.4 °F 73% 30.12 in 10.0 mi NW 17.3 mph 24.2 mph N/A   Clear
2:35 AM 17.6 °F 2.2 °F 10.4 °F 73% 30.13 in 10.0 mi NW 17.3 mph 24.2 mph N/A   Clear
2:55 AM 15.8 °F 1.4 °F 10.4 °F 79% 30.11 in 10.0 mi NW 13.8 mph 23.0 mph N/A   Clear
3:15 AM 15.8 °F 2.7 °F 10.4 °F 79% 30.12 in 10.0 mi NW 11.5 mph 18.4 mph N/A   Clear
3:35 AM 15.8 °F 2.7 °F 8.6 °F 73% 30.13 in 10.0 mi WNW 11.5 mph - N/A   Clear
3:55 AM 12.2 °F -1.0 °F 8.6 °F 85% 30.11 in 10.0 mi NW 10.4 mph - N/A   Clear
4:15 AM 12.2 °F -1.8 °F 8.6 °F 85% 30.12 in 10.0 mi WNW 11.5 mph - N/A   Clear
4:35 AM 12.2 °F -2.5 °F 8.6 °F 85% 30.12 in 10.0 mi WNW 12.7 mph - N/A   Clear
4:55 AM 12.2 °F -2.5 °F 8.6 °F 85% 30.14 in 10.0 mi NW 12.7 mph - N/A   Clear
5:15 AM 12.2 °F -1.0 °F 8.6 °F 85% 30.14 in 10.0 mi NW 10.4 mph - N/A   Clear
5:35 AM 12.2 °F -0.2 °F 8.6 °F 85% 30.13 in 10.0 mi NW 9.2 mph - N/A   Clear
5:55 AM 12.2 °F -0.2 °F 6.8 °F 79% 30.12 in 10.0 mi NW 9.2 mph - N/A   Clear
6:15 AM 10.4 °F 0.8 °F 6.8 °F 85% 30.12 in 10.0 mi WNW 5.8 mph - N/A   Clear
6:35 AM 10.4 °F 4.0 °F 6.8 °F 85% 30.11 in 10.0 mi West 3.5 mph - N/A   Clear
6:55 AM 10.4 °F -1.5 °F 6.8 °F 85% 30.11 in 10.0 mi WSW 8.1 mph - N/A   Clear
7:15 AM 10.4 °F -2.4 °F 6.8 °F 85% 30.10 in 10.0 mi West 9.2 mph - N/A   Mostly Cloudy
7:35 AM 12.2 °F 0.7 °F 6.8 °F 79% 30.10 in 10.0 mi West 8.1 mph - N/A   Overcast
7:55 AM 14.0 °F 3.9 °F 8.6 °F 79% 30.10 in 10.0 mi West 6.9 mph - N/A   Overcast
8:15 AM 15.8 °F 7.2 °F 8.6 °F 73% 30.10 in 10.0 mi West 5.8 mph - N/A   Overcast
8:35 AM 15.8 °F 10.2 °F 8.6 °F 73% 30.09 in 10.0 mi WNW 3.5 mph - N/A   Mostly Cloudy
8:55 AM 17.6 °F 12.3 °F 10.4 °F 73% 30.07 in 10.0 mi SSW 3.5 mph - N/A   Scattered Clouds
9:15 AM 17.6 °F 10.7 °F 12.2 °F 79% 30.08 in 10.0 mi SSW 4.6 mph - N/A   Mostly Cloudy
9:35 AM 19.4 °F 9.5 °F 14.0 °F 80% 30.07 in 10.0 mi SW 8.1 mph - N/A   Overcast
9:55 AM 21.2 °F 10.9 °F 14.0 °F 74% 30.08 in 10.0 mi SW 9.2 mph - N/A   Overcast
10:15 AM 21.2 °F 10.9 °F 14.0 °F 74% 30.08 in 10.0 mi WSW 9.2 mph - N/A   Overcast
10:35 AM 21.2 °F 13.6 °F 15.8 °F 80% 30.07 in 10.0 mi SW 5.8 mph - N/A   Scattered Clouds
10:55 AM 23.0 °F 18.4 °F 15.8 °F 74% 30.06 in 10.0 mi South 3.5 mph - N/A   Clear
11:15 AM 24.8 °F 19.1 °F 15.8 °F 69% 30.05 in 10.0 mi South 4.6 mph - N/A   Clear
11:35 AM 24.8 °F 17.9 °F 15.8 °F 69% 30.03 in 10.0 mi South 5.8 mph - N/A   Clear
11:55 AM 26.6 °F 17.5 °F 17.6 °F 69% 30.00 in 10.0 mi South 9.2 mph - N/A   Clear
12:15 PM 28.4 °F 19.1 °F 19.4 °F 69% 29.98 in 10.0 mi South 10.4 mph - N/A   Clear
12:35 PM 30.2 °F 21.3 °F 21.2 °F 69% 29.96 in 10.0 mi South 10.4 mph - N/A   Clear
12:55 PM 32.0 °F 22.5 °F 21.2 °F 64% 29.95 in 10.0 mi South 12.7 mph - N/A   Clear
1:15 PM 33.8 °F 24.8 °F 23.0 °F 65% 29.93 in 10.0 mi South 12.7 mph - N/A   Clear
1:35 PM 35.6 °F 25.9 °F 24.8 °F 65% 29.92 in 10.0 mi South 16.1 mph - N/A   Clear
1:55 PM 35.6 °F 27.5 °F 26.6 °F 70% 29.91 in 10.0 mi South 11.5 mph - N/A   Clear
2:15 PM 37.4 °F 28.2 °F 26.6 °F 65% 29.89 in 10.0 mi SSW 16.1 mph 19.6 mph N/A   Clear
2:35 PM 39.2 °F 32.0 °F 26.6 °F 61% 29.87 in 10.0 mi South 11.5 mph - N/A   Clear
2:55 PM 41.0 °F 34.3 °F 26.6 °F 57% 29.86 in 10.0 mi South 11.5 mph - N/A   Clear
3:15 PM 41.0 °F 33.5 °F 26.6 °F 57% 29.85 in 10.0 mi SSW 13.8 mph - N/A   Clear
3:35 PM 42.8 °F 36.6 °F 28.4 °F 57% 29.85 in 10.0 mi South 11.5 mph - N/A   Clear
3:55 PM 42.8 °F 37.0 °F 28.4 °F 57% 29.84 in 10.0 mi South 10.4 mph - N/A   Clear
4:15 PM 41.0 °F 34.7 °F 28.4 °F 61% 29.83 in 10.0 mi South 10.4 mph - N/A   Clear
4:35 PM 41.0 °F 35.2 °F 28.4 °F 61% 29.82 in 10.0 mi South 9.2 mph - N/A   Clear
4:55 PM 39.2 °F 33.6 °F 28.4 °F 65% 29.81 in 10.0 mi South 8.1 mph - N/A   Clear
5:15 PM 39.2 °F 33.6 °F 28.4 °F 65% 29.79 in 10.0 mi SSE 8.1 mph - N/A   Clear
5:35 PM 37.4 °F 31.4 °F 28.4 °F 70% 29.79 in 10.0 mi SSE 8.1 mph - N/A   Clear
5:55 PM 37.4 °F 30.8 °F 30.2 °F 75% 29.78 in 10.0 mi SSE 9.2 mph - N/A   Clear
6:15 PM 35.6 °F 28.6 °F 30.2 °F 81% 29.77 in 10.0 mi South 9.2 mph - N/A   Clear
6:35 PM 35.6 °F 28.6 °F 30.2 °F 81% 29.77 in 10.0 mi South 9.2 mph - N/A   Clear
6:55 PM 35.6 °F 29.9 °F 28.4 °F 75% 29.77 in 10.0 mi SSE 6.9 mph - N/A   Clear
7:15 PM 33.8 °F 27.7 °F 28.4 °F 81% 29.77 in 10.0 mi South 6.9 mph - N/A   Clear
7:35 PM 33.8 °F 28.6 °F 28.4 °F 81% 29.77 in 10.0 mi SSE 5.8 mph - N/A   Clear
7:55 PM 33.8 °F 27.7 °F 28.4 °F 81% 29.76 in 10.0 mi South 6.9 mph - N/A   Clear
8:15 PM 33.8 °F 28.6 °F 26.6 °F 75% 29.75 in 10.0 mi South 5.8 mph - N/A   Clear
8:35 PM 33.8 °F 28.6 °F 26.6 °F 75% 29.75 in 10.0 mi South 5.8 mph - N/A   Clear
8:55 PM 33.8 °F 28.6 °F 28.4 °F 81% 29.74 in 10.0 mi South 5.8 mph - N/A   Clear
9:15 PM 33.8 °F - 28.4 °F 81% 29.75 in 10.0 mi Calm Calm - N/A   Mostly Cloudy
9:35 PM 33.8 °F - 28.4 °F 81% 29.75 in 10.0 mi Calm Calm - N/A   Mostly Cloudy
9:55 PM 33.8 °F - 28.4 °F 81% 29.75 in 10.0 mi Calm Calm - N/A   Overcast
10:15 PM 33.8 °F 30.8 °F 28.4 °F 81% 29.75 in 10.0 mi ENE 3.5 mph - N/A   Overcast
10:35 PM 33.8 °F 29.6 °F 28.4 °F 81% 29.75 in 10.0 mi ENE 4.6 mph - N/A   Scattered Clouds
10:55 PM 32.0 °F 26.4 °F 28.4 °F 87% 29.75 in 10.0 mi ENE 5.8 mph - N/A   Clear
11:15 PM 28.4 °F 19.7 °F 24.8 °F 86% 29.77 in 10.0 mi NNE 9.2 mph 16.1 mph N/A   Clear
11:35 PM 24.8 °F 14.0 °F 21.2 °F 86% 29.77 in 10.0 mi NNE 11.5 mph 20.7 mph N/A   Clear
11:55 PM 23.0 °F 12.4 °F 17.6 °F 80% 29.78 in 10.0 mi NE 10.4 mph 18.4 mph N/A   Clear